Location: Staunton
(38.1490°N, 79.0720°W)
Time: 20:48:19
(UTC-04:00)

ISS - Visible Passes

Search period start: 01 October 2022 00:00
Search period end: 11 October 2022 00:00
Orbit: 416 x 420 km, 51.6° (Epoch: 01 October)

Date Brightness Start Highest point End Pass type
(mag) Time Alt. Az. Time Alt. Az. Time Alt. Az.
01 Oct -2.8 20:45:30 10° NW 20:47:59 41° NNW 20:47:59 41° NNW visible
02 Oct -2.8 19:57:43 10° NW 20:00:50 33° NNE 20:02:09 24° ENE visible
02 Oct -0.4 21:34:42 10° WNW 21:35:06 12° W 21:35:06 12° W visible
03 Oct -2.7 20:46:35 10° WNW 20:49:30 43° WSW 20:49:30 43° WSW visible
04 Oct -3.8 19:58:49 10° NW 20:02:13 84° SW 20:04:10 23° SE visible
05 Oct -3.5 19:11:18 10° NW 19:14:39 55° NE 19:17:58 10° ESE visible
05 Oct -1.0 20:49:13 10° W 20:51:07 14° SW 20:52:06 13° SSW visible
06 Oct -1.6 20:01:01 10° WNW 20:03:51 25° SW 20:06:40 10° S visible
07 Oct -2.6 19:13:23 10° WNW 19:16:38 44° SW 19:19:53 10° SSE visible
09 Oct -0.7 19:17:04 10° W 19:18:55 14° SW 19:20:45 10° SSW visible
